Lexington Weather

Lexington, Massachusetts, USA

71°F
9/22/2021 2:09pm 
  • Lexington Conditions: Light rain, Mist, Overcast
  • Temperature: 71.2°F / 21.8°CColder 3.6°F than last hour.
  • Dew Point: 68.7°FIncreased 0.5°Fsince last hour.
  • Relative Humidity: 92%Increased 12.0% since last hour.
  • Wind: Wind from W W 2 mph, 10-min avg: 3 mph, gust: 7 mph
  • Barometer: 30.09 in Steady
  • Visibility: 2 miles
  • Rain Today: 0.00 in
  •   

Regional Weather Roundup
for Boston / Norton, MA

        
000
ASUS41 KBOX 162304
RWRBOX

REGIONAL WEATHER ROUNDUP
NATIONAL WEATHER SERVICE BOSTON/NORTON MA
700 PM EDT THU SEP 16 2021

NOTE:  "FAIR" INDICATES FEW OR NO CLOUDS BELOW 12,000 FEET WITH NO 
SIGNIFICANT WEATHER AND/OR OBSTRUCTIONS TO VISIBILITY.

MAZALL-170000-
EASTERN MASSACHUSETTS
  
CITY           SKY/WX    TMP DP  RH WIND       PRES   REMARKS
BOSTON         PTCLDY    65  59  81 E12       30.31R                  
BEVERLY        PTCLDY    64  59  83 N6        30.30R                  
LAWRENCE       CLOUDY    64  58  80 NE5       30.34R                  
BEDFORD        CLOUDY    66  61  84 NE8       30.29R                  
BLUE HILL      NOT AVBL                                               
NORWOOD        CLOUDY    65  59  81 E6        30.30R                  
MARSHFIELD     CLOUDY    66  63  88 E7        30.31R                  
PLYMOUTH       CLOUDY    66  63  90 E7        30.31R                  
TAUNTON        CLOUDY    66  62  87 E5        30.30R                  
NEW BEDFORD    CLOUDY    68  64  87 NE8       30.29R                  
$$

MAZALL-170000-
CAPE COD AND THE ISLANDS
  
CITY           SKY/WX    TMP DP  RH WIND       PRES   REMARKS
FALMOUTH       NOT AVBL                                               
HYANNIS        MOCLDY    68  65  90 NE6       30.29R                  
CHATHAM        CLOUDY    66  65  96 NE7       30.31R FOG              
PROVINCETOWN   CLOUDY    64  63  96 E10       30.32R                  
NANTUCKET      CLOUDY    69  66  90 NE7       30.28R                  
MARTHAS VNYRD  CLOUDY    69  66  90 E13       30.28R                  
$$
 
MAZALL-170000-
CENTRAL AND WESTERN MASSACHUSETTS
  
CITY           SKY/WX    TMP DP  RH WIND       PRES   REMARKS
WORCESTER      CLOUDY    64  61  90 E6        30.31R                  
FITCHBURG      CLOUDY    66  61  84 N5        30.32R                  
ORANGE         CLOUDY    67  62  84 NE6       30.31R                  
SPRINGFIELD    CLOUDY    70  63  80 E8        30.27R                  
WESTFIELD      CLOUDY    71  67  87 NE3       30.27R                  
NORTH ADAMS    CLOUDY    71  61  70 VRB6      30.27R                  
PITTSFIELD     CLOUDY    68  62  81 E5        30.28R                  
$$
 
RIZALL-170000-
RHODE ISLAND
  
CITY           SKY/WX    TMP DP  RH WIND       PRES   REMARKS
PROVIDENCE     CLOUDY    70  66  87 NE12      30.29R                  
NEWPORT        MOCLDY    69  64  84 NE7       30.28R                  
BLOCK ISLAND   CLOUDY    69  65  86 E10G17    30.28R                  
SMITHFIELD     CLOUDY    64  62  93 E6        30.31R                  
WESTERLY       CLOUDY    68  66  93 NE7       30.27R                  
$$
 
CTZALL-170000-
CONNECTICUT
  
CITY           SKY/WX    TMP DP  RH WIND       PRES   REMARKS
BRADLEY INTL   CLOUDY    72  64  76 CALM      30.26R                  
HARTFORD       CLOUDY    73  64  73 E3        30.25R                  
BRIDGEPORT     CLOUDY    73  67  81 E9        30.24R                  
DANBURY        CLOUDY    73  64  73 E5        30.26R                  
GROTON         CLOUDY    71  66  84 E5        30.26R                  
NEW HAVEN      CLOUDY    73  68  84 NE5       30.25R                  
CHESTER        MOCLDY    70  68  94 CALM      30.27R                  
MERIDEN        CLOUDY    72  64  76 CALM      30.25R                  
WILLIMANTIC    CLOUDY    70  64  81 E3        30.27R                  
OXFORD         CLOUDY    69  65  86 E5        30.28R                  
$$

MEZ002-015-021-024-NHZ003-005-008-011-012-014-VTZ005-008-170000-
NORTHERN NEW ENGLAND
  
CITY           SKY/WX    TMP DP  RH WIND       PRES   REMARKS
PORTLAND ME    CLEAR     62  54  74 SE3       30.33R                  
BANGOR ME      PTCLDY    59  55  87 CALM      30.33R                  
CONCORD NH     CLOUDY    65  58  78 CALM      30.31R                  
MANCHESTER NH  CLOUDY    67  55  65 SE5       30.30R                  
NASHUA NH      CLOUDY    67  61  81 E7        30.33R                  
PORTSMOUTH NH  MOCLDY    63  56  77 E5        30.33R                  
JAFFREY NH     CLOUDY    65  61  87 CALM      30.33R                  
KEENE NH       CLOUDY    67  62  84 CALM      30.31R                  
BURLINGTON VT  CLEAR     69  56  62 CALM      30.26R                  
MT. WASHINGTON PTCLDY    45  43  93 SW12        N/A                   
$$

NYZ052-076-170000-
EASTERN NEW YORK
  
CITY           SKY/WX    TMP DP  RH WIND       PRES   REMARKS
ALBANY         MOCLDY    70  63  78 NE6       30.24R                  
NEW YORK CITY  CLOUDY    74  65  73 NE13      30.22R                  
$$
 
ANZALL-170000-
MARINE OBSERVATIONS
  
STATION/POSITION TIME  TEMP    WIND        PRES    VSBY  WAVE
                       AIR SEA DIR/SP/G                  HT/PER
                 (UTC) (F)     (DEG/KT/KT) (MB)    (MI)  (FT/S)
BOSTON BUOY      2240      67   50/ 10/ 12 1026.2R
BUZZARDS BAY     2200           50/ 18/ 20 1025.4R
NANTUCKET SOUND  2240   69 72   70/ 14/ 16 1025.5R
MASS BAY-STELLWA 2204   64      60/ 12/ 14 1025.4F  1 7/8  2/ 4
ISLE OF SHOALS   2200   63      90/ 11/ 12 1025.8R
S OF BLOCK IS    2226      69                N/A           4/ 6
$$

......................KEY.........................
  SKY/WX - SKY CONDITION/PRESENT WEATHER
  TMP    - TEMPERATURE IN FAHRENHEIT
  DWPT   - DEWPOINT IN FAHRENHEIT
  RH     - RELATIVE HUMIDITY IN PERCENT
  WIND   - DIRECTION AND SPEED IN MPH
  PRES   - MEAN SEA LEVEL PRESSURE IN INCHES OF HG
  WCI    - WIND CHILL INDEX
  VSB    - VISIBILITY IN MILES
  HX     - HEAT INDEX
  TC     - TEMPERATURE IN CELSIUS
  VRB    - VARIABLE WIND DIRECTION
  N/A    - NOT AVAILABLE
  
      

Other recent Regional Weather Roundups

Wed Sep 22, 1:04pm

Wed Sep 22, 12:05pm

Wed Sep 22, 11:04am

Wed Sep 22, 10:04am

Wed Sep 22, 9:04am

Wed Sep 22, 8:04am

Wed Sep 22, 7:04am

Wed Sep 22, 6:04am

Wed Sep 22, 5:04am

Wed Sep 22, 4:04am

Wed Sep 22, 3:04am

Wed Sep 22, 2:04am

Wed Sep 22, 1:04am

Wed Sep 22, 12:04am

Tue Sep 21, 11:04pm

Tue Sep 21, 10:04pm

Tue Sep 21, 9:04pm

Tue Sep 21, 8:04pm

Tue Sep 21, 7:04pm

Tue Sep 21, 6:04pm

Tue Sep 21, 5:04pm

Tue Sep 21, 4:04pm

Tue Sep 21, 3:04pm

Tue Sep 21, 2:04pm

Tue Sep 21, 1:04pm

Tue Sep 21, 12:04pm

Tue Sep 21, 11:04am

Tue Sep 21, 10:04am

Tue Sep 21, 9:04am

Tue Sep 21, 8:04am

Tue Sep 21, 7:04am

Tue Sep 21, 6:04am

Tue Sep 21, 5:04am

Tue Sep 21, 4:04am

Tue Sep 21, 3:04am

Tue Sep 21, 2:04am

Tue Sep 21, 1:04am

Tue Sep 21, 12:04am

Mon Sep 20, 11:04pm

Mon Sep 20, 10:04pm

Mon Sep 20, 9:04pm

Mon Sep 20, 8:04pm

Mon Sep 20, 7:04pm

Mon Sep 20, 6:04pm

Mon Sep 20, 5:04pm

Mon Sep 20, 4:04pm

Mon Sep 20, 3:04pm

Mon Sep 20, 2:04pm

Mon Sep 20, 1:04pm

Mon Sep 20, 12:04pm

Mon Sep 20, 11:04am

Mon Sep 20, 10:04am

Mon Sep 20, 9:04am

Mon Sep 20, 7:04am

Mon Sep 20, 6:04am

Mon Sep 20, 5:04am

Mon Sep 20, 4:04am

Mon Sep 20, 3:04am

Mon Sep 20, 2:04am

Mon Sep 20, 1:04am

Mon Sep 20, 12:04am

Sun Sep 19, 11:04pm

Sun Sep 19, 10:04pm

Sun Sep 19, 9:04pm

Sun Sep 19, 8:04pm

Sun Sep 19, 7:04pm

Sun Sep 19, 6:04pm

Sun Sep 19, 5:04pm

Sun Sep 19, 4:04pm

Sun Sep 19, 3:04pm

Sun Sep 19, 2:05pm

Sun Sep 19, 1:04pm

Sun Sep 19, 12:04pm

Sun Sep 19, 11:04am

Sun Sep 19, 10:05am

Sun Sep 19, 9:04am

Sun Sep 19, 8:04am

Sun Sep 19, 7:04am

Sun Sep 19, 6:04am

Sun Sep 19, 5:04am

Sun Sep 19, 4:04am

Sun Sep 19, 3:04am

Sun Sep 19, 2:04am

Sun Sep 19, 1:04am

Sun Sep 19, 12:04am

Sat Sep 18, 11:05pm

Sat Sep 18, 10:04pm

Sat Sep 18, 9:04pm

Sat Sep 18, 8:04pm

Sat Sep 18, 7:04pm

Sat Sep 18, 6:04pm

Sat Sep 18, 5:04pm

Sat Sep 18, 4:04pm

Sat Sep 18, 3:04pm

Sat Sep 18, 2:04pm

Sat Sep 18, 1:04pm

Sat Sep 18, 12:04pm

Sat Sep 18, 11:04am

Sat Sep 18, 10:04am

Sat Sep 18, 9:04am

Sat Sep 18, 8:04am

Sat Sep 18, 7:04am

Sat Sep 18, 6:04am

Sat Sep 18, 5:04am

Sat Sep 18, 4:04am

Sat Sep 18, 3:04am

Sat Sep 18, 2:04am

Sat Sep 18, 1:04am

Sat Sep 18, 12:04am

Fri Sep 17, 11:04pm

Fri Sep 17, 10:04pm

Fri Sep 17, 9:04pm

Fri Sep 17, 8:04pm

Fri Sep 17, 7:04pm

Fri Sep 17, 6:04pm

Fri Sep 17, 5:04pm

Fri Sep 17, 4:04pm

Fri Sep 17, 3:04pm

Fri Sep 17, 2:04pm

Fri Sep 17, 1:04pm

Fri Sep 17, 12:05pm

Fri Sep 17, 11:04am

Fri Sep 17, 10:04am

Fri Sep 17, 9:04am

Fri Sep 17, 8:04am

Fri Sep 17, 7:04am

Fri Sep 17, 6:04am

Fri Sep 17, 5:04am

Fri Sep 17, 4:04am

Fri Sep 17, 3:04am

Fri Sep 17, 2:04am

Fri Sep 17, 1:04am

Fri Sep 17, 12:04am

Thu Sep 16, 11:04pm

Thu Sep 16, 10:04pm

Thu Sep 16, 9:04pm

Thu Sep 16, 8:04pm

Thu Sep 16, 6:04pm

Thu Sep 16, 5:04pm

Thu Sep 16, 4:04pm

Thu Sep 16, 3:04pm

Thu Sep 16, 2:04pm

Thu Sep 16, 1:05pm

Thu Sep 16, 12:04pm

Thu Sep 16, 11:05am

Thu Sep 16, 10:05am

Thu Sep 16, 9:04am

Thu Sep 16, 8:04am

Thu Sep 16, 7:04am

Thu Sep 16, 6:04am

Thu Sep 16, 5:04am

Thu Sep 16, 4:04am

Thu Sep 16, 3:04am

Thu Sep 16, 2:04am

Thu Sep 16, 1:04am

Thu Sep 16, 12:04am

Wed Sep 15, 11:04pm

Wed Sep 15, 10:04pm

Wed Sep 15, 9:04pm

Wed Sep 15, 8:04pm

Wed Sep 15, 7:04pm

Wed Sep 15, 6:04pm

Wed Sep 15, 5:05pm

Wed Sep 15, 4:04pm

Wed Sep 15, 3:04pm

Wed Sep 15, 2:04pm

Meta data:

ID: aed623e7-0a06-4362-a140-7c31bb34fb9a
Link: https://api.weather.gov/products/aed623e7-0a06-4362-a140-7c31bb34fb9a